FW7047 Weather Reports


time (UTC)temp
C
wind
direction
speed
KPH
gust
KPH
rain 1hr
cm
rain 24hr
cm
rain mn
cm
humidity
%
barometer
mb
20211025043513 8 155 27.4 0.0 0.00 0.00 0.00 53 1004.1
20211025042514 8 123 25.7 0.0 0.00 0.00 0.00 53 1003.9
20211025041519 8 120 24.1 0.0 0.00 0.00 0.00 53 1004.5
20211025040521 8 167 29.0 0.0 0.00 0.00 0.00 53 1004.1
20211025035522 8 153 27.4 0.0 0.00 0.00 0.00 53 1004.3
20211025034526 8 159 27.4 0.0 0.00 0.00 0.00 54 1004.4
20211025033528 8 103 27.4 0.0 0.00 0.00 0.00 54 1004.6
20211025032529 8 157 25.7 0.0 0.00 0.00 0.00 54 1004.3
20211025031514 8 163 27.4 0.0 0.00 0.00 0.00 55 1004.7
20211025030516 8 150 22.5 0.0 0.00 0.00 0.00 54 1004.9
20211025025516 8 155 22.5 0.0 0.00 0.00 0.00 54 1004.8
20211025024517 8 128 22.5 0.0 0.00 0.00 0.00 54 1005.1
20211025023525 8 157 22.5 0.0 0.00 0.00 0.00 54 1005.3
20211025022522 8 124 6.4 0.0 0.00 0.00 0.00 53 1004.6
20211025021522 8 120 20.9 0.0 0.00 0.00 0.00 52 1004.7
20211025020529 8 134 22.5 0.0 0.00 0.00 0.00 52 1004.4
20211025015528 8 103 22.5 0.0 0.00 0.00 0.00 52 1004.7
20211025014529 8 139 24.1 0.0 0.00 0.00 0.00 51 1004.9
20211025013516 8 130 22.5 0.0 0.00 0.00 0.00 52 1004.8
20211025012516 8 148 20.9 0.0 0.00 0.00 0.00 50 1004.8
20211025011517 8 148 22.5 0.0 0.00 0.00 0.00 50 1004.5
20211025010524 8 142 20.9 0.0 0.00 0.00 0.00 49 1004.6
20211025005523 8 11 22.5 0.0 0.00 0.00 0.00 49 1004.4
20211025004524 8 105 22.5 0.0 0.00 0.00 0.00 49 1004.2
20211025003531 8 98 22.5 0.0 0.00 0.00 0.00 48 1004.2
20211025002511 8 103 22.5 0.0 0.00 0.00 0.00 48 1004.2
20211025001512 8 88 20.9 0.0 0.00 0.00 0.00 46 1004.2
20211025000517 9 91 20.9 0.0 0.00 0.00 0.00 44 1004.2
20211024235518 9 92 19.3 0.0 0.00 0.00 0.00 44 1004.1
20211024234520 9 115 16.1 0.0 0.00 0.00 0.00 44 1004.5
20211024233521 9 99 12.9 0.0 0.00 0.00 0.00 44 1004.8
20211024232526 9 118 8.0 0.0 0.00 0.00 0.00 44 1004.8
20211024231526 9 99 8.0 0.0 0.00 0.00 0.00 43 1005.3
20211024230528 10 103 12.9 0.0 0.00 0.00 0.00 43 1005.0
20211024225512 10 93 16.1 0.0 0.00 0.00 0.00 43 1005.3
20211024224513 9 90 17.7 0.0 0.00 0.00 0.00 43 1005.4
20211024223515 9 78 14.5 0.0 0.00 0.00 0.00 43 1005.6
20211024222520 9 90 9.7 0.0 0.00 0.00 0.00 43 1005.7
20211024221520 10 128 3.2 0.0 0.00 0.00 0.00 43 1005.8
20211024220521 10 53 16.1 0.0 0.00 0.00 0.00 42 1006.0
20211024215526 10 167 16.1 0.0 0.00 0.00 0.00 42 1006.1
20211024214528 10 48 16.1 0.0 0.00 0.00 0.00 42 1006.1
20211024213528 10 150 17.7 0.0 0.00 0.00 0.00 42 1005.7
20211024212513 10 157 16.1 0.0 0.00 0.00 0.00 41 1005.7
20211024211514 10 71 9.7 0.0 0.00 0.00 0.00 42 1005.8
20211024210516 10 115 17.7 0.0 0.00 0.00 0.00 42 1005.6
20211024205521 10 169 1.6 0.0 0.00 0.00 0.00 43 1005.6
20211024204521 10 174 0.0 0.0 0.00 0.00 0.00 42 1005.6
20211024203524 10 166 0.0 0.0 0.00 0.00 0.00 42 1005.7
20211024202524 10 154 12.9 0.0 0.00 0.00 0.00 43 1005.8
20211024201529 10 152 3.2 0.0 0.00 0.00 0.00 43 1005.6
20211024200512 10 140 0.0 0.0 0.00 0.00 0.00 42 1005.7
20211024195511 10 169 0.0 0.0 0.00 0.00 0.00 42 1005.7
20211024194517 10 131 3.2 0.0 0.00 0.00 0.00 41 1005.5
20211024193519 10 121 0.0 0.0 0.00 0.00 0.00 43 1005.7
20211024192520 10 145 0.0 0.0 0.00 0.00 0.00 44 1006.0
20211024191525 9 146 0.0 0.0 0.00 0.00 0.00 44 1006.2
20211024190526 9 123 3.2 0.0 0.00 0.00 0.00 44 1006.5
20211024185527 8 158 14.5 0.0 0.00 0.00 0.00 46 1006.6
20211024184512 8 157 12.9 0.0 0.00 0.00 0.00 45 1006.9
20211024183513 8 167 14.5 0.0 0.00 0.00 0.00 48 1007.1
20211024182513 8 192 14.5 0.0 0.00 0.00 0.00 47 1007.2
20211024181519 8 148 16.1 0.0 0.00 0.00 0.00 48 1007.5
20211024180520 8 128 12.9 0.0 0.00 0.00 0.00 48 1007.2
20211024175522 8 169 17.7 0.0 0.00 0.00 0.00 49 1007.5
20211024174527 8 183 17.7 0.0 0.00 0.00 0.00 49 1007.7
20211024173528 8 152 3.2 0.0 0.00 0.00 0.00 48 1007.6
20211024172528 8 200 0.0 0.0 0.00 0.00 0.00 48 1007.4
20211024171513 8 155 0.0 0.0 0.00 0.00 0.00 47 1007.1
20211024170516 8 169 0.0 0.0 0.00 0.00 0.00 48 1007.1
20211024165516 7 171 0.0 0.0 0.00 0.00 0.00 49 1007.2
20211024164517 7 158 0.0 0.0 0.00 0.00 0.00 52 1007.4
20211024163523 7 141 0.0 0.0 0.00 0.00 0.00 53 1007.5
20211024162523 7 166 0.0 0.0 0.00 0.00 0.00 53 1007.6
20211024161524 7 159 0.0 0.0 0.00 0.00 0.00 52 1007.4
20211024160530 7 173 0.0 0.0 0.00 0.00 0.00 53 1007.4
20211024155531 7 175 0.0 0.0 0.00 0.00 0.00 55 1007.5
20211024154530 6 200 0.0 0.0 0.00 0.00 0.00 54 1007.4
20211024153517 6 132 0.0 0.0 0.00 0.00 0.00 55 1007.3
20211024152518 6 141 0.0 0.0 0.00 0.00 0.00 57 1007.3
20211024151518 5 123 0.0 0.0 0.00 0.00 0.00 59 1007.4
20211024150524 4 119 0.0 0.0 0.00 0.00 0.00 60 1007.3
20211024145525 4 97 0.0 0.0 0.00 0.00 0.00 59 1007.3
20211024144526 4 178 0.0 0.0 0.00 0.00 0.00 59 1007.3
20211024143531 4 194 0.0 0.0 0.00 0.00 0.00 60 1007.1
20211024142512 4 173 0.0 0.0 0.00 0.00 0.00 58 1007.1
20211024141513 5 349 0.0 0.0 0.00 0.00 0.00 58 1006.9
20211024140518 4 322 0.0 0.0 0.00 0.00 0.00 58 1006.9
20211024135519 3 335 0.0 0.0 0.00 0.00 0.00 58 1006.9
20211024134520 3 301 0.0 0.0 0.00 0.00 0.00 58 1006.9
20211024133522 3 300 0.0 0.0 0.00 0.00 0.00 56 1006.9
20211024132527 3 300 0.0 0.0 0.00 0.00 0.00 55 1006.8
20211024131528 3 300 0.0 0.0 0.00 0.00 0.00 54 1006.7
20211024130529 3 300 0.0 0.0 0.00 0.00 0.00 53 1006.7
20211024125514 3 224 0.0 0.0 0.00 0.00 0.00 54 1006.8
20211024124514 3 233 0.0 0.0 0.00 0.00 0.00 58 1006.7
20211024123516 2 251 0.0 0.0 0.00 0.00 0.00 61 1006.5
20211024122522 2 252 0.0 0.0 0.00 0.00 0.00 61 1006.5
20211024121523 2 237 0.0 0.0 0.00 0.00 0.00 62 1006.5
20211024120524 2 234 0.0 0.0 0.00 0.00 0.00 62 1006.4
20211024115529 3 221 0.0 0.0 0.00 0.00 0.00 62 1006.3
20211024114530 3 223 0.0 0.0 0.00 0.00 0.00 62 1006.0
20211024113512 3 207 0.0 0.0 0.00 0.00 0.00 62 1006.0
20211024112516 3 202 0.0 0.0 0.00 0.00 0.00 62 1005.9
20211024111517 3 196 0.0 0.0 0.00 0.00 0.00 62 1005.8
20211024110518 3 161 0.0 0.0 0.00 0.00 0.00 62 1005.8
20211024105523 3 193 0.0 0.0 0.00 0.00 0.00 62 1005.7
20211024104524 3 238 0.0 0.0 0.00 0.00 0.00 62 1005.5
20211024103526 3 197 0.0 0.0 0.00 0.00 0.00 63 1005.5
20211024102527 3 190 0.0 0.0 0.00 0.00 0.00 62 1005.5
20211024101512 3 200 4.8 0.0 0.00 0.00 0.00 62 1005.4
20211024100512 3 194 0.0 0.0 0.00 0.00 0.00 61 1005.3
20211024095513 3 161 0.0 0.0 0.00 0.00 0.00 60 1005.3
20211024094518 3 244 0.0 0.0 0.00 0.00 0.00 60 1005.4
20211024093520 3 228 0.0 0.0 0.00 0.00 0.00 59 1005.3
20211024092520 3 194 0.0 0.0 0.00 0.00 0.00 58 1005.3
20211024091525 3 227 0.0 0.0 0.00 0.00 0.00 57 1005.2
20211024090527 3 213 0.0 0.0 0.00 0.00 0.00 58 1005.9
20211024085528 3 161 0.0 0.0 0.00 0.00 0.00 57 1005.8
20211024084513 3 181 0.0 0.0 0.00 0.00 0.00 56 1005.7
20211024083514 3 216 0.0 0.0 0.00 0.00 0.00 56 1005.7
20211024082516 3 193 0.0 0.0 0.00 0.00 0.00 56 1005.7
20211024081520 3 189 0.0 0.0 0.00 0.00 0.00 55 1005.6
20211024080520 3 206 0.0 0.0 0.00 0.00 0.00 55 1005.6
20211024075522 4 213 0.0 0.0 0.00 0.00 0.00 55 1005.6
20211024074527 4 206 0.0 0.0 0.00 0.00 0.00 54 1005.7
20211024073529 5 207 0.0 0.0 0.00 0.00 0.00 53 1005.5
20211024072530 5 225 0.0 0.0 0.00 0.00 0.00 53 1005.5
20211024071515 5 198 0.0 0.0 0.00 0.00 0.00 53 1005.4
20211024070516 4 212 0.0 0.0 0.00 0.00 0.00 55 1005.2
20211024065518 3 228 0.0 0.0 0.00 0.00 0.00 59 1005.1
20211024064519 3 228 0.0 0.0 0.00 0.00 0.00 63 1005.0
20211024063524 3 227 0.0 0.0 0.00 0.00 0.00 66 1005.1
20211024062524 3 225 0.0 0.0 0.00 0.00 0.00 66 1005.1
20211024061526 3 225 0.0 0.0 0.00 0.00 0.00 66 1005.0
20211024060531 3 225 0.0 0.0 0.00 0.00 0.00 65 1005.2
20211024055512 3 211 0.0 0.0 0.00 0.00 0.00 64 1005.1
20211024054512 3 211 0.0 0.0 0.00 0.00 0.00 65 1005.1
20211024053519 3 211 0.0 0.0 0.00 0.00 0.00 64 1005.2
20211024052519 3 210 0.0 0.0 0.00 0.00 0.00 66 1005.1
20211024051520 3 210 0.0 0.0 0.00 0.00 0.00 67 1005.1
20211024050525 4 209 0.0 0.0 0.00 0.00 0.00 67 1005.3
20211024045526 4 305 0.0 0.0 0.00 0.00 0.00 66 1005.1
20211024044528 4 306 0.0 0.0 0.00 0.00 0.00 63 1005.2